Tracking 25620 objects as of 18-May-2022
HD Live streaming from Space Station
objects crossing your sky now

COSMOS 2251 DEB

Track COSMOS 2251 DEB now!
10-day predictions


NORAD ID: 36372
Int'l Code: 1993-036AYZ
Perigee: 712.0 km
Apogee: 770.0 km
Inclination: 74.0 °
Period: 99.5 minutes
Semi major axis: 7111 km
RCS: 0.0134 m2 (small)
Launch date: June 16, 1993
Source: Commonwealth of Independent States (former USSR) (CIS)
Launch site: PLESETSK MISSILE AND SPACE COMPLEX (PKMTR)

Note: This is SATELLITE DEBRIS
aabbcc
Your satellite tracking list
Your tracking list is empty




NASA's NSSDC Master Catalog

Two Line Element Set (TLE):
1 36372U 93036AYZ 22136.30825288  .00007137  00000-0  19276-2 0  9997
2 36372  74.0108 122.4028 0040751 139.5010 220.9194 14.47494393466762
Source of the keplerian elements: AFSPC